Skip Page Navigation
NASA JPL Caltech
NASA Logo - Jet Propulsion Laboratory + View the NASA Portal
+ Center for Near-Earth Object Studies
JPL Home Earth Solar System Stars & Galaxies Technology
JPL Solar System Dynamics
BODIES ORBITS EPHEMERIDES TOOLS PHYSICAL DATA DISCOVERY FAQ SITE MAP
JPL Small-Body Database Browser
Search: [ help ]  
34338 (2000 QM216)
Classification: Main-belt Asteroid          SPK-ID: 2034338
Ephemeris | Orbit Diagram | Orbital Elements | Mission Design | Physical Parameters | Discovery Circumstances | Close-Approach Data ]

[ show orbit diagram ]
Orbital Elements at Epoch 2459000.5 (2020-May-31.0) TDB
Reference: JPL 23 (heliocentric ecliptic J2000)
 Element Value Uncertainty (1-sigma)   Units 
e .03835181426206784 3.9041e-08  
a 2.613630438894845 1.2841e-08 au
q 2.513392969752663 9.9933e-08 au
i 3.123429613233259 4.1149e-06 deg
node 72.9803626217453 6.9148e-05 deg
peri 141.410792851404 8.553e-05 deg
M 12.35073164837458 4.8837e-05 deg
tp 2458947.551351318498
(2020-Apr-08.05135132)
0.00020945 TDB
period 1543.350958309357
4.23
1.1374e-05
3.114e-08
d
yr
n .2332586752622729 1.7191e-09 deg/d
Q 2.713867908037027 1.3334e-08 au
  Orbit Determination Parameters
   # obs. used (total)      1108  
   data-arc span      8731 days (23.90 yr)  
   first obs. used      1996-10-10  
   last obs. used      2020-09-05  
   planetary ephem.      DE431  
   SB-pert. ephem.      SB431-N16  
   condition code      0  
   norm. resid. RMS      .52334  
   source      ORB  
   producer      Otto Matic  
   solution date      2020-Nov-13 00:46:08  

Additional Information
 Earth MOID = 1.50664 au 
 Jupiter MOID = 2.24733 au 
 T_jup = 3.405 
[ show covariance matrix ]

Ephemeris | Orbit Diagram | Orbital Elements | Mission Design | Physical Parameters | Discovery Circumstances | Close-Approach Data ]

Physical Parameter Table
Parameter Symbol Value Units Sigma Reference Notes
absolute magnitude H 15.3   n/a MPO431887  
diameter diameter 5.467 km 0.194 urn:nasa:pds:neowise_diameters_albedos::2.0[mainbelt] (http://adsabs.harvard.edu/abs/2011ApJ...741...68M)  
geometric albedo albedo 0.059   0.005 urn:nasa:pds:neowise_diameters_albedos::2.0[mainbelt] (http://adsabs.harvard.edu/abs/2011ApJ...741...68M)  

34338 (2000 QM216)          Discovered 2000-Aug-31 by LINEAR at Socorro
Reference: 20020128/Numbers.arcLast Updated: 2004-04-19

[ hide close-approach data ]
Close-Approach Data   ...sorted by Date/Time (TDB)
Date/Time (TDB) Time Uncertainty
(days_HH:MM)
Body Nominal Distance (au) Minimum Distance (au) Maximum Distance (au) V-relative (km/s) V-infinity (km/s) JD (TDB) Time Uncertainty (minutes) Semi-major axis (km) Semi-minor axis (km) range-LOV angle (deg) N-sigma BP Orbit Ref. Reference Modified
2150-Feb-21 15:30 00:04 David 0.0428826013115271 0.042852826454242 0.0429123824246173 5.08774484711251 5.08774477786939 2506383.145596866 4.16125671376646 1693.84151789863 34.9294813564942 -28.8240919333564 88556.5700656561 T 23 CATAB v2.0f-lin.ifort 2020-Nov-13 00:46:11 2020-Nov-13 00:46

Alternate Designations
 2000 QM216 = 1999 JN134 
Ephemeris | Orbit Diagram | Orbital Elements | Mission Design | Physical Parameters | Discovery Circumstances | Close-Approach Data ]
ABOUT SSD CREDITS/AWARDS PRIVACY/COPYRIGHT GLOSSARY LINKS
FirstGov 2020-Nov-23 17:35 UT
(server date/time)  
NASA Home Page
Site Manager:   Ryan S. Park
Webmaster  Alan B. Chamberlin